Regional Weather Roundup
Issued by NWS Goodland, KS

Home | Current Version | Previous Version | Graphics & Text | Print | Product List | Glossary On
Versions: 1 2 3 4 5 6 7 8 9 10 11 12 13 14 15 16 17 18 19 20 21 22 23 24 25 26 27 28 29 30 31 32 33 34 35 36 37 38 39 40 41 42 43 44 45 46 47 48 49 50
000
ASUS43 KGLD 052008
RWRGLD

GOODLAND FORECAST AREA HOURLY WEATHER ROUNDUP
NATIONAL WEATHER SERVICE GOODLAND KS
100 PM MST MON DEC 05 2016

...OFFICIAL OBSERVATIONS...

CITY           SKY/WX    TMP DP  RH WIND       PRES   REMARKS
GOODLAND KS    SUNNY     61  18  18 NE14      29.55S
HILL CITY KS   SUNNY     51  28  41 E7        29.58S
IMPERIAL NEB   CLOUDY    51  20  29 NW28G37   29.60R
MCCOOK NEB     CLOUDY    50  24  36 NE7       29.56S
AKRON CO       PTSUNNY   49  14  24 NW23G33   29.62R
BURLINGTON CO  SUNNY     60  16  18 E13       29.57R
LIMON CO       CLOUDY    53  18  25 N13       29.60S
$$

...UNOFFICIAL OBSERVATIONS...

CITY           SKY/WX    TMP DP  RH WIND       PRES   REMARKS
COLBY KS       SUNNY     59  27  29 E17       29.57R
LENORA KS        N/A     50  32  50 MISG        N/A
NORTON KS      SUNNY     54  23  30 E8        29.56F
SHARON SPRINGS   N/A     63  21  20 NE15        N/A
TRENTON NEB      N/A     48  32  54 CALM        N/A
KIT CARSON CO    N/A     61  23  23 MISG        N/A
YUMA CO        CLOUDY    45  23  42 NW21G32   29.61R
$$




USA.gov is the U.S. government's official web portal to all federal, state and local government web resources and services.